Printer-friendly version

IAU Minor Planet Center

Minor Planet Center

MPEC 2007-S29 : 2004 VN112

The following Minor Planet Electronic Circular may be linked-to from your own Web pages, but must not otherwise be redistributed electronically.


Read MPEC 2007-S28 Read MPEC 2007-S30


M.P.E.C. 2007-S29                                Issued 2007 Sept. 19, 22:41 UT

     The Minor Planet Electronic Circulars contain information on unusual
         minor planets and routine data on comets.  They are published
   on behalf of Commission 20 of the International Astronomical Union by the
          Minor Planet Center, Smithsonian Astrophysical Observatory,
                          Cambridge, MA 02138, U.S.A.

             Prepared using the Tamkin Foundation Computer Network

                              MPC@CFA.HARVARD.EDU
          URL http://www.cfa.harvard.edu/iau/mpc.html  ISSN 1523-6714

                                  2004 VN112

Observations:
     K04VB2N* C2004 11 06.11000 02 08 41.12 -04 33 02.1          22.7 R ES029807
     K04VB2N  C2004 11 06.12572 02 08 41.06 -04 33 02.3          22.2 I ES029807
     K04VB2N  C2004 11 14.12217 02 08 09.66 -04 34 09.7          23.1 R ES029807
     K04VB2N  C2004 11 14.13784 02 08 09.60 -04 34 09.7          22.2 I ES029807
     K04VB2N  C2004 11 20.07277 02 07 47.38 -04 34 38.2          23.2 R ES029807
     K04VB2N  C2004 11 20.08791 02 07 47.33 -04 34 38.3          22.2 I ES029807
     K04VB2N  C2004 12 07.11150 02 06 51.48 -04 34 11.5          22.6 R ES029807
     K04VB2N  C2004 12 07.12746 02 06 51.43 -04 34 11.3          22.4 I ES029807
     K04VB2N  C2004 12 11.09186 02 06 40.59 -04 33 40.9          22.9 R ES029807
     K04VB2N  C2004 12 11.10909 02 06 40.54 -04 33 40.8          22.3 I ES029807
     K04VB2N  C2004 12 15.08650 02 06 30.64 -04 33 01.0          22.8 R ES029807
     K04VB2N  C2004 12 15.11395 02 06 30.58 -04 33 00.8          22.2 I ES029807
     K04VB2N  C2005 12 24.09730 02 10 48.32 -03 32 10.6          22.8 R ES029807
     K04VB2N  C2005 12 24.11337 02 10 48.28 -03 32 10.3          22.4 I ES029807
     K04VB2N  C2005 12 29.08601 02 10 40.03 -03 30 48.5          22.9 R ES029807
     K04VB2N  C2005 12 29.11996 02 10 39.98 -03 30 48.0          22.5 I ES029807
     K04VB2N  C2005 12 31.06909 02 10 37.25 -03 30 12.0          23.0 R ES029807

Observer details:
807 Cerro Tololo.  Observer ESSENCE Collaboration.  Measurers A. C. Becker,
    K. S. Arraki, A. Rest, W. M. Wood-Vasey.  4-m Blanco Telescope + CCD.

Orbital elements:
2004 VN112
Epoch 2007 Oct. 27.0 TT = JDT 2454400.5                 MPC
M   0.00046              (2000.0)            P               Q
n   0.00017555     Peri.  324.28818     +0.81160216     -0.43100578
a 315.8896135      Node    65.95781     +0.58380996     +0.62334927
e   0.8499066      Incl.   25.58470     -0.02163024     +0.65243368
P  5610            H    6.4           G   0.15           U   4
Residuals in seconds of arc
041106 807  0.0   0.0     041207 807  0.0   0.1-    051224 807  0.1+  0.0
041106 807  0.1+  0.0     041207 807  0.1-  0.0     051224 807  0.0   0.0
041114 807  0.1-  0.1-    041211 807  0.0   0.1+    051229 807  0.0   0.0
041114 807  0.1-  0.0     041211 807  0.0   0.0     051229 807  0.0   0.1-
041120 807  0.0   0.0     041215 807  0.0   0.1+    051231 807  0.1-  0.1+
041120 807  0.1+  0.0     041215 807  0.1+  0.0

Ephemeris:
2004 VN112               a,e,i = 315.89, 0.85, 26                q = 47.413
Date    TT    R. A. (2000) Decl.     Delta      r     Elong.  Phase     V
2007 09 17    02 25.71   -01 18.4   46.664   47.413   137.7     0.8    23.3
2007 09 27    02 25.22   -01 22.0   46.572   47.413   146.7     0.7    23.2
2007 10 07    02 24.65   -01 25.4   46.504   47.413   155.1     0.5    23.2
2007 10 17    02 24.02   -01 28.7   46.464   47.413   162.1     0.4    23.2
2007 10 27    02 23.35   -01 31.5   46.452   47.413   165.1     0.3    23.2
2007 11 06    02 22.67   -01 33.8   46.469   47.413   162.0     0.4    23.2
2007 11 16    02 22.00   -01 35.4   46.516   47.413   154.9     0.5    23.2
2007 11 26    02 21.37   -01 36.3   46.590   47.413   146.2     0.7    23.2
2007 12 06    02 20.81   -01 36.3   46.689   47.413   136.9     0.8    23.3
2007 12 16    02 20.32   -01 35.4   46.811   47.413   127.2     0.9    23.3
2007 12 26    02 19.95   -01 33.6   46.952   47.413   117.5     1.1    23.3
2008 01 05    02 19.69   -01 30.9   47.106   47.413   107.6     1.1    23.3
2008 01 15    02 19.56   -01 27.3   47.271   47.413    97.8     1.2    23.3
2008 01 25    02 19.57   -01 22.9   47.439   47.413    87.9     1.2    23.3
2008 02 04    02 19.72   -01 17.9   47.606   47.414    78.2     1.2    23.3
2008 02 14    02 20.00   -01 12.3   47.767   47.414    68.5     1.1    23.3
2008 02 24    02 20.41   -01 06.2   47.917   47.414    58.9     1.0    23.3
2008 03 05    02 20.94   -00 59.8   48.052   47.414    49.5     0.9    23.3
2008 03 15    02 21.58   -00 53.3   48.168   47.414    40.3     0.8    23.3
2008 03 25    02 22.30   -00 46.7   48.262   47.414    31.5     0.6    23.3

Brian G. Marsden             (C) Copyright 2007 MPC           M.P.E.C. 2007-S29

Read MPEC 2007-S28 Read MPEC 2007-S30


Our Web policy. Index to the CBAT/MPC/ICQ pages.


Valid HTML 4.01!